| time (UTC) | temp C | wind direction | speed KPH | gust KPH | rain 1hr cm | rain 24hr cm | rain mn cm | humidity % | barometer mb |
| 20260901194505 | 16 | 158 | 0.0 | 4.8 | 0.00 | 0.79 | 0.79 | 88 | 1015.5 |
| 20260901193005 | 16 | 192 | 0.0 | 0.0 | 0.00 | 0.79 | 0.79 | 88 | 1015.6 |
| 20260901191504 | 15 | 255 | 0.0 | 0.0 | 0.00 | 0.79 | 0.79 | 88 | 1015.7 |
| 20260901190007 | 15 | 297 | 0.0 | 3.2 | 0.00 | 0.79 | 0.79 | 87 | 1015.8 |
| 20260901184505 | 15 | 30 | 0.0 | 3.2 | 0.00 | 0.79 | 0.79 | 87 | 1015.8 |
| 20260901183002 | 15 | 234 | 0.0 | 3.2 | 0.03 | 0.79 | 0.79 | 87 | 1015.8 |
| 20260901181501 | 15 | 200 | 0.0 | 0.0 | 0.03 | 0.79 | 0.79 | 88 | 1015.8 |
| 20260901180002 | 15 | 182 | 0.0 | 0.0 | 0.03 | 0.79 | 0.79 | 88 | 1015.5 |
| 20260901174602 | 15 | 180 | 0.0 | 0.0 | 0.03 | 0.79 | 0.79 | 88 | 1015.6 |
| 20260901173104 | 15 | 262 | 0.0 | 0.0 | 0.03 | 0.79 | 0.79 | 88 | 1015.5 |
| 20260901171559 | 14 | 254 | 0.0 | 1.6 | 0.00 | 0.76 | 0.76 | 88 | 1015.6 |
| 20260901170107 | 14 | 300 | 0.0 | 0.0 | 0.00 | 0.76 | 0.76 | 88 | 1015.6 |
| 20260901164613 | 14 | 248 | 0.0 | 0.0 | 0.03 | 0.76 | 0.76 | 88 | 1015.7 |
| 20260901163058 | 14 | 173 | 0.0 | 1.6 | 0.05 | 0.76 | 0.76 | 88 | 1015.6 |
| 20260901161559 | 14 | 109 | 0.0 | 16.1 | 0.05 | 0.76 | 0.76 | 88 | 1015.2 |
| 20260901160058 | 14 | 22 | 0.0 | 9.7 | 0.05 | 0.76 | 0.76 | 88 | 1015.0 |
| 20260901154553 | 14 | 34 | 0.0 | 6.4 | 0.05 | 0.71 | 0.71 | 88 | 1015.2 |
| 20260901153049 | 14 | 186 | 0.0 | 0.0 | 0.03 | 0.71 | 0.71 | 88 | 1015.1 |
| 20260901151650 | 14 | 109 | 0.0 | 0.0 | 0.03 | 0.71 | 0.71 | 88 | 1015.4 |
| 20260901150048 | 14 | 244 | 0.0 | 4.8 | 0.03 | 0.71 | 0.71 | 88 | 1015.6 |
| 20260901144548 | 14 | 273 | 0.0 | 0.0 | 0.00 | 0.69 | 0.69 | 88 | 1015.4 |
| 20260901143048 | 14 | 23 | 0.0 | 6.4 | 0.00 | 0.69 | 0.69 | 88 | 1015.1 |
| 20260901141546 | 14 | 266 | 0.0 | 0.0 | 0.00 | 0.69 | 0.69 | 88 | 1015.1 |
| 20260901140053 | 14 | 169 | 0.0 | 0.0 | 0.00 | 0.69 | 0.69 | 88 | 1015.2 |
| 20260901134604 | 14 | 159 | 0.0 | 0.0 | 0.00 | 0.69 | 0.69 | 88 | 1015.3 |
| 20260901133049 | 15 | 198 | 0.0 | 0.0 | 0.00 | 0.69 | 0.69 | 88 | 1015.5 |
| 20260901131543 | 15 | 198 | 0.0 | 0.0 | 0.00 | 0.69 | 0.69 | 88 | 1015.7 |
| 20260901130044 | 15 | 12 | 0.0 | 0.0 | 0.00 | 0.69 | 0.69 | 88 | 1015.6 |
| 20260901124539 | 15 | 284 | 0.0 | 0.0 | 0.03 | 0.69 | 0.69 | 88 | 1015.7 |
| 20260901123036 | 15 | 316 | 0.0 | 0.0 | 0.08 | 0.69 | 0.69 | 88 | 1015.8 |
| 20260901121533 | 15 | 351 | 0.0 | 0.0 | 0.20 | 0.69 | 0.69 | 88 | 1015.8 |
| 20260901120047 | 15 | 351 | 0.0 | 0.0 | 0.38 | 0.69 | 0.69 | 88 | 1015.9 |
| 20260901114530 | 15 | 355 | 0.0 | 0.0 | 0.48 | 0.66 | 0.66 | 89 | 1015.8 |
| 20260901113032 | 15 | 351 | 0.0 | 0.0 | 0.51 | 0.61 | 0.61 | 89 | 1015.8 |
| 20260901111526 | 16 | 28 | 0.0 | 0.0 | 0.43 | 0.46 | 0.46 | 89 | 1015.5 |
| 20260901110024 | 16 | 360 | 0.0 | 0.0 | 0.30 | 0.30 | 0.30 | 89 | 1015.9 |
| 20260901104525 | 16 | 360 | 0.0 | 0.0 | 0.18 | 0.18 | 0.18 | 89 | 1016.1 |
| 20260901103027 | 16 | 360 | 0.0 | 0.0 | 0.10 | 0.10 | 0.10 | 89 | 1015.7 |
| 20260901101521 | 16 | 360 | 0.0 | 0.0 | 0.03 | 0.03 | 0.03 | 89 | 1015.7 |
| 20260901100022 | 16 | 319 | 0.0 | 0.0 | 0.00 | 0.00 | 0.00 | 89 | 1015.4 |
| 20260901094527 | 16 | 319 | 0.0 | 0.0 | 0.00 | 0.00 | 0.00 | 89 | 1015.1 |
| 20260901093019 | 16 | 319 | 0.0 | 0.0 | 0.00 | 0.00 | 0.00 | 89 | 1014.9 |
| 20260901091517 | 16 | 319 | 0.0 | 0.0 | 0.00 | 0.00 | 0.00 | 89 | 1015.0 |
| 20260901090016 | 16 | 319 | 0.0 | 0.0 | 0.00 | 0.00 | 0.00 | 89 | 1015.2 |
| 20260901084516 | 16 | 319 | 0.0 | 0.0 | 0.00 | 0.00 | 0.00 | 89 | 1015.4 |
| 20260901083015 | 16 | 319 | 0.0 | 0.0 | 0.00 | 0.00 | 0.00 | 89 | 1015.3 |
| 20260901081514 | 16 | 319 | 0.0 | 0.0 | 0.00 | 0.00 | 0.00 | 88 | 1015.5 |
| 20260901080013 | 16 | 320 | 0.0 | 0.0 | 0.00 | 0.00 | 0.00 | 89 | 1015.4 |
| 20260901074513 | 16 | 317 | 0.0 | 0.0 | 0.00 | 0.00 | 0.00 | 89 | 1015.3 |
| 20260901073014 | 16 | 317 | 0.0 | 0.0 | 0.00 | 0.00 | 0.00 | 89 | 1015.5 |
| 20260901071520 | 16 | 317 | 0.0 | 0.0 | 0.00 | 0.00 | 0.00 | 88 | 1015.4 |
| 20260901070019 | 16 | 317 | 0.0 | 0.0 | 0.00 | 0.00 | 0.00 | 88 | 1015.6 |
| 20260901064507 | 17 | 317 | 0.0 | 0.0 | 0.00 | 0.00 | 0.00 | 88 | 1015.8 |
| 20260901063006 | 17 | 317 | 0.0 | 0.0 | 0.00 | 0.00 | 0.00 | 88 | 1016.1 |
| 20260901061505 | 17 | 317 | 0.0 | 0.0 | 0.00 | 0.00 | 0.00 | 88 | 1016.0 |
| 20260901060003 | 17 | 317 | 0.0 | 0.0 | 0.00 | 0.00 | 0.00 | 88 | 1016.1 |
| 20260901054508 | 17 | 317 | 0.0 | 0.0 | 0.00 | 0.00 | 0.00 | 88 | 1016.2 |
| 20260901053001 | 17 | 317 | 0.0 | 0.0 | 0.00 | 0.00 | 0.00 | 88 | 1016.2 |
| 20260901051611 | 17 | 317 | 0.0 | 0.0 | 0.00 | 0.00 | 0.00 | 88 | 1016.3 |
| 20260901050059 | 17 | 317 | 0.0 | 0.0 | 0.00 | 0.00 | 0.00 | 88 | 1016.4 |
| 20260901044608 | 17 | 317 | 0.0 | 0.0 | 0.00 | 0.00 | 0.00 | 88 | 1016.5 |
| 20260901043057 | 17 | 317 | 0.0 | 0.0 | 0.00 | 0.00 | 0.00 | 88 | 1016.3 |
| 20260901041555 | 17 | 317 | 0.0 | 0.0 | 0.00 | 0.00 | 0.00 | 87 | 1016.3 |
| 20260901040109 | 17 | 317 | 0.0 | 0.0 | 0.00 | 0.00 | 0.00 | 87 | 1016.2 |
| 20260901034607 | 17 | 317 | 0.0 | 0.0 | 0.00 | 0.00 | 0.00 | 87 | 1016.2 |
| 20260901033051 | 17 | 317 | 0.0 | 0.0 | 0.00 | 0.00 | 0.00 | 87 | 1016.5 |
| 20260901031551 | 17 | 317 | 0.0 | 0.0 | 0.00 | 0.00 | 0.00 | 87 | 1016.5 |
| 20260901030049 | 17 | 317 | 0.0 | 0.0 | 0.00 | 0.00 | 0.00 | 87 | 1016.5 |
| 20260901024553 | 17 | 317 | 0.0 | 0.0 | 0.00 | 0.00 | 0.00 | 86 | 1016.7 |
| 20260901023100 | 17 | 317 | 0.0 | 0.0 | 0.00 | 0.00 | 0.00 | 86 | 1016.6 |
| 20260901021554 | 17 | 317 | 0.0 | 0.0 | 0.00 | 0.00 | 0.00 | 85 | 1016.6 |
| 20260901020048 | 17 | 317 | 0.0 | 0.0 | 0.00 | 0.00 | 0.00 | 85 | 1016.6 |
| 20260901014553 | 17 | 317 | 0.0 | 0.0 | 0.00 | 0.00 | 0.00 | 85 | 1016.6 |
| 20260901013047 | 17 | 317 | 0.0 | 0.0 | 0.00 | 0.00 | 0.00 | 84 | 1016.6 |
| 20260901011547 | 17 | 317 | 0.0 | 0.0 | 0.00 | 0.00 | 0.00 | 84 | 1016.5 |
| 20260901010046 | 18 | 317 | 0.0 | 0.0 | 0.00 | 0.00 | 0.00 | 84 | 1016.6 |
| 20260901004645 | 18 | 317 | 0.0 | 0.0 | 0.00 | 0.00 | 0.00 | 83 | 1016.5 |
| 20260901003045 | 18 | 317 | 0.0 | 0.0 | 0.00 | 0.00 | 0.00 | 82 | 1016.6 |
| 20260901001644 | 18 | 317 | 0.0 | 0.0 | 0.00 | 0.00 | 0.00 | 81 | 1016.5 |
| 20260901000045 | 18 | 317 | 0.0 | 0.0 | 0.00 | 0.00 | 0.00 | 80 | 1016.4 |
| 20260831234545 | 19 | 317 | 0.0 | 0.0 | 0.00 | 0.00 | 0.00 | 79 | 1016.4 |
| 20260831233042 | 20 | 317 | 0.0 | 0.0 | 0.00 | 0.00 | 0.00 | 80 | 1016.4 |
| 20260831231542 | 20 | 317 | 0.0 | 0.0 | 0.00 | 0.00 | 0.00 | 78 | 1016.6 |
| 20260831230041 | 21 | 317 | 0.0 | 0.0 | 0.00 | 0.00 | 0.00 | 75 | 1016.8 |
| 20260831224538 | 21 | 317 | 0.0 | 0.0 | 0.00 | 0.00 | 0.00 | 73 | 1017.0 |
| 20260831223040 | 21 | 317 | 0.0 | 0.0 | 0.00 | 0.00 | 0.00 | 71 | 1017.0 |
| 20260831221538 | 22 | 317 | 0.0 | 0.0 | 0.00 | 0.00 | 0.00 | 66 | 1017.1 |
| 20260831220036 | 22 | 278 | 0.0 | 0.0 | 0.00 | 0.00 | 0.00 | 67 | 1016.9 |
| 20260831214538 | 22 | 278 | 0.0 | 0.0 | 0.00 | 0.00 | 0.00 | 64 | 1016.9 |
| 20260831213035 | 22 | 184 | 0.0 | 0.0 | 0.00 | 0.00 | 0.00 | 64 | 1016.9 |
| 20260831211536 | 22 | 300 | 0.0 | 9.7 | 0.00 | 0.00 | 0.00 | 62 | 1016.9 |
| 20260831210034 | 22 | 219 | 0.0 | 0.0 | 0.00 | 0.00 | 0.00 | 61 | 1016.9 |
| 20260831204533 | 22 | 262 | 0.0 | 4.8 | 0.00 | 0.00 | 0.00 | 58 | 1016.9 |
| 20260831203031 | 23 | 214 | 0.0 | 8.0 | 0.00 | 0.00 | 0.00 | 59 | 1017.0 |
| 20260831201531 | 23 | 346 | 1.6 | 17.7 | 0.00 | 0.00 | 0.00 | 57 | 1017.1 |
| 20260831200040 | 23 | 205 | 1.6 | 14.5 | 0.00 | 0.00 | 0.00 | 58 | 1017.2 |